Le nostre stazioni meteo in Italia

Pubblicità
Il mio iltempo24.it
Decimomannu, Italia (16546): Temperatura & dewpoint: 09.11.2018 08:00:00 - 15.11.2018 08:00:00 (CET)Decimomannu, Italia (16546): velocità del vento: 09.11.2018 08:00:00 - 15.11.2018 08:00:00 (CET)Decimomannu, Italia (16546): direzione del vento: 09.11.2018 08:00:00 - 15.11.2018 08:00:00 (CET)Decimomannu, Italia (16546): reduced air pressure: 09.11.2018 08:00:00 - 15.11.2018 08:00:00 (CET)Decimomannu, Italia (16546): visibility: 09.11.2018 08:00:00 - 15.11.2018 08:00:00 (CET)
Data & Tempo tt [°C] td [°C] ff [km/h] ff [kn] dd ppp [hPa] vv [km]
15.11.2018 08:00:00 12,0 10,0 11 6 NE - 10
15.11.2018 07:00:00 11,4 9,7 9 5 NE 1021,2 12
15.11.2018 06:00:00 11,0 10,0 11 6 NE - 10
15.11.2018 05:00:00 11,0 10,0 11 6 NE - 10
15.11.2018 04:00:00 11,2 9,8 9 5 ENE 1022,1 15
15.11.2018 03:00:00 12,0 10,0 8 4 ENE - 10
15.11.2018 02:00:00 12,0 10,0 9 5 ENE - 10
15.11.2018 01:00:00 12,6 11,0 9 5 ENE 1023,1 15
15.11.2018 00:00:00 13,0 11,0 9 5 ENE - 10
14.11.2018 23:00:00 13,0 11,0 8 4 E - 10
14.11.2018 22:00:00 13,8 12,5 8 4 ENE 1023,3 15
14.11.2018 21:00:00 14,0 12,0 5 3 SE - 10
14.11.2018 20:00:00 15,0 13,0 8 4 E - 10
14.11.2018 19:00:00 15,4 13,8 8 4 E 1023,9 12
14.11.2018 18:00:00 17,0 16,0 9 5 SE - 10
14.11.2018 17:00:00 18,0 17,0 11 6 SE - 10
14.11.2018 16:00:00 19,4 16,8 13 7 S 1023,7 20
14.11.2018 15:00:00 20,0 17,0 13 7 SSE - 10
14.11.2018 14:00:00 21,0 18,0 16 9 SSE - 10
14.11.2018 13:00:00 20,6 17,0 16 9 SSE 1024,9 20
14.11.2018 12:00:00 20,0 18,0 18 10 SE - 10
14.11.2018 11:00:00 20,0 17,0 18 10 SE - 10
14.11.2018 10:00:00 18,8 16,6 9 5 SSE 1026,0 20
14.11.2018 09:00:00 16,0 14,0 5 3 NE - 10
14.11.2018 08:00:00 13,0 11,0 8 4 NNE - 10
14.11.2018 07:00:00 12,8 10,9 9 5 NNE 1025,7 12
14.11.2018 06:00:00 13,0 11,0 4 2 NNE - 10
14.11.2018 05:00:00 13,0 11,0 9 5 NE - 10
14.11.2018 04:00:00 14,0 12,0 9 5 NE 1026,0 10
14.11.2018 03:00:00 13,0 11,0 9 5 NE - 10
14.11.2018 02:00:00 14,0 12,0 9 5 NE - 10
14.11.2018 01:00:00 14,4 12,6 5 3 NNE 1026,3 15
14.11.2018 00:00:00 15,0 13,0 5 3 NE - 10
13.11.2018 23:00:00 21,0 19,0 5 3 NNO - 10
13.11.2018 22:00:00 17,0 15,0 4 2 NE 1026,8 14
13.11.2018 21:00:00 18,0 16,0 9 5 ESE - 10
13.11.2018 20:00:00 17,0 15,0 11 6 SE - 10
13.11.2018 19:00:00 17,4 15,6 13 7 SE 1026,2 15
13.11.2018 18:00:00 18,0 16,0 13 7 SE - 10
13.11.2018 17:00:00 19,0 18,0 11 6 ESE - 10
13.11.2018 16:00:00 20,4 18,9 16 9 SE 1025,5 15
13.11.2018 15:00:00 21,0 19,0 21 11 SSE - 10
13.11.2018 14:00:00 21,0 19,0 21 11 SE - 10
13.11.2018 13:00:00 21,4 19,3 21 11 SE 1025,6 15
13.11.2018 12:00:00 21,0 19,0 18 10 SE - 10
13.11.2018 11:00:00 21,0 19,0 21 11 SE - 10
13.11.2018 10:00:00 21,2 19,1 18 10 SE 1026,1 10
13.11.2018 09:00:00 18,0 16,0 13 7 ESE - 10
13.11.2018 08:00:00 17,0 15,0 11 6 ESE - 10
13.11.2018 07:00:00 16,4 14,4 13 7 ESE 1025,0 10
13.11.2018 06:00:00 16,0 14,0 13 7 ESE - 10
13.11.2018 05:00:00 17,0 15,0 9 5 ESE - 10
13.11.2018 04:00:00 16,4 14,8 15 8 ESE 1024,2 10
13.11.2018 03:00:00 16,0 15,0 13 7 ESE - 10
13.11.2018 02:00:00 16,0 15,0 13 7 ESE - 10
13.11.2018 01:00:00 16,0 14,4 13 7 ESE 1024,7 10
13.11.2018 00:00:00 15,0 14,0 9 5 ESE - 10
12.11.2018 23:00:00 15,0 14,0 8 4 SE - 10
12.11.2018 22:00:00 15,2 13,9 5 3 SE 1024,4 10
12.11.2018 21:00:00 15,0 14,0 5 3 ESE - 10
12.11.2018 20:00:00 16,0 15,0 5 3 SE - 10
12.11.2018 19:00:00 16,6 16,0 8 4 ESE 1023,9 15
12.11.2018 18:00:00 18,0 17,0 8 4 ESE - 10
12.11.2018 17:00:00 19,0 17,0 11 6 SSE - 10
12.11.2018 16:00:00 20,0 18,3 15 8 SSE 1023,1 18
12.11.2018 15:00:00 21,0 17,0 16 9 SE - 10
12.11.2018 14:00:00 22,0 15,0 21 11 SE - 10
12.11.2018 13:00:00 21,2 17,6 21 11 SE 1023,1 20
12.11.2018 12:00:00 21,0 17,0 18 10 SSE - 10
12.11.2018 11:00:00 20,0 17,0 9 5 S - 10
12.11.2018 10:00:00 19,6 16,4 4 2 SSE 1024,0 18
12.11.2018 09:00:00 14,0 13,0 4 2 E - 10
12.11.2018 08:00:00 12,0 10,0 8 4 NE - 10
12.11.2018 07:00:00 10,6 9,0 13 7 NE 1022,8 20
12.11.2018 06:00:00 11,0 9,0 11 6 ENE - 10
12.11.2018 05:00:00 10,0 9,0 9 5 ENE - 10
12.11.2018 04:00:00 10,6 9,0 4 2 NE 1022,4 10
12.11.2018 03:00:00 11,0 9,0 4 2 E - 10
12.11.2018 02:00:00 12,0 10,0 2 1 N - 10
12.11.2018 01:00:00 12,6 11,0 4 2 E 1022,1 10
12.11.2018 00:00:00 13,0 12,0 11 6 ESE - 10
11.11.2018 23:00:00 13,0 11,0 4 2 NNO - 10
11.11.2018 22:00:00 13,6 12,0 4 2 E 1021,9 12
11.11.2018 21:00:00 13,0 12,0 9 5 E - 10
11.11.2018 20:00:00 14,0 13,0 9 5 ESE - 10
11.11.2018 19:00:00 15,0 13,7 11 6 ESE 1021,3 15
11.11.2018 18:00:00 16,0 15,0 9 5 SE - 10
11.11.2018 17:00:00 17,0 16,0 11 6 SE - 10
11.11.2018 16:00:00 19,4 16,6 13 7 SSE 1020,1 20
11.11.2018 15:00:00 21,0 16,0 9 5 SSE - 10
11.11.2018 14:00:00 21,0 15,0 9 5 S - 10
11.11.2018 13:00:00 21,0 15,3 5 3 SE 1020,4 20
11.11.2018 12:00:00 19,0 14,0 4 2 S - 10
11.11.2018 11:00:00 18,0 15,0 4 2 NNO - 10
11.11.2018 10:00:00 13,6 11,7 4 2 ONO 1019,8 15
11.11.2018 09:00:00 12,0 10,0 4 2 O - 10
11.11.2018 08:00:00 9,0 7,0 5 3 NNE - 5
11.11.2018 07:00:00 10,2 8,5 4 2 NNO 1018,8 2,0
11.11.2018 06:00:00 10,0 8,0 5 3 NNO - 8
11.11.2018 05:00:00 10,0 8,0 5 3 NO - 6
11.11.2018 04:00:00 10,2 8,5 4 2 NE 1017,9 12
11.11.2018 03:00:00 11,0 9,0 5 3 ONO - 10
11.11.2018 02:00:00 11,0 10,0 5 3 NO - 10
11.11.2018 01:00:00 11,8 10,2 5 3 NNE 1017,2 15
11.11.2018 00:00:00 12,0 11,0 4 2 NNE - 10
10.11.2018 23:00:00 12,0 11,0 4 2 NO - 10
10.11.2018 22:00:00 13,2 11,6 4 2 NNE 1015,9 15
10.11.2018 21:00:00 13,0 11,0 8 4 NNE - 10
10.11.2018 20:00:00 14,0 13,0 4 2 N - 10
10.11.2018 19:00:00 15,2 14,2 9 5 NO 1015,1 20
10.11.2018 18:00:00 16,0 15,0 11 6 NO - 10
10.11.2018 17:00:00 17,0 15,0 9 5 NNO - 10
10.11.2018 16:00:00 17,4 15,0 15 8 NO 1014,1 25
10.11.2018 15:00:00 17,0 14,0 16 9 NO - 10
10.11.2018 14:00:00 18,0 15,0 13 7 NO - 10
10.11.2018 13:00:00 17,0 13,9 13 7 NNO 1014,5 30
10.11.2018 12:00:00 16,0 14,0 11 6 NNO - 10
10.11.2018 11:00:00 15,0 13,0 8 4 N - 10
10.11.2018 10:00:00 14,2 12,4 8 4 NNO 1015,5 20
10.11.2018 09:00:00 13,0 12,0 8 4 NO - 10
10.11.2018 08:00:00 13,0 11,0 8 4 NO - 10
10.11.2018 07:00:00 13,0 11,2 5 3 N 1014,6 15
10.11.2018 06:00:00 13,0 11,0 4 2 OSO - 10
10.11.2018 05:00:00 13,0 11,0 5 3 SSE - 10
10.11.2018 04:00:00 12,8 11,0 8 4 NE 1015,1 15
10.11.2018 03:00:00 13,0 11,0 4 2 SO - 10
10.11.2018 02:00:00 13,0 12,0 8 4 OSO - 10
10.11.2018 01:00:00 13,8 11,7 8 4 O 1015,9 10
10.11.2018 00:00:00 15,0 13,0 11 6 S - 10
09.11.2018 23:00:00 15,0 13,0 5 3 S - 10
09.11.2018 22:00:00 15,4 13,8 4 2 NNO 1016,2 10
09.11.2018 21:00:00 16,0 14,0 5 3 ONO - 10
09.11.2018 20:00:00 16,0 14,0 13 7 OSO - 10
09.11.2018 19:00:00 16,8 15,2 2 1 O 1014,8 12
09.11.2018 18:00:00 - - - - - - -
09.11.2018 17:00:00 18,0 17,0 9 5 SSE - 10
09.11.2018 16:00:00 20,0 17,4 9 5 SSE 1014,7 10
09.11.2018 15:00:00 20,0 17,0 11 6 SSE - 10
09.11.2018 14:00:00 - - - - - - -
09.11.2018 13:00:00 20,2 16,8 22 12 SSE 1015,0 20
09.11.2018 12:00:00 20,0 16,0 24 13 SE - 10
09.11.2018 11:00:00 20,0 16,0 21 11 SSE - 10
09.11.2018 10:00:00 18,2 15,8 15 8 SE 1016,7 20
09.11.2018 09:00:00 16,0 14,0 9 5 SE - 10
09.11.2018 08:00:00 12,0 10,0 8 4 ENE - 10

tt = Temperatura
td = dewpoint
ff = velocità del vento
dd = direzione del vento
ppp = reduced air pressure
vv = visibility

Stazioni seguenti

WeatherPro
AMSI
MeteoEarth